Time,TemperatureF,DewpointF,PressureIn,WindDirection,WindDirectionDegrees,WindSpeedMPH,WindSpeedGustMPH,Humidity,HourlyPrecipIn,Conditions,Clouds,dailyrainin,SoftwareType,DateUTC
2013-02-19 00:22:00,29.0,17.0,30.07,WNW,301,5.0,15.0,60,0.00,,,0.04,,2013-02-19 06:22:00,
2013-02-19 00:33:00,29.0,17.0,30.07,WNW,301,5.0,15.0,60,0.00,,,0.04,,2013-02-19 06:33:00,
2013-02-19 00:42:00,29.0,17.0,30.07,WNW,301,5.0,15.0,60,0.00,,,0.04,,2013-02-19 06:42:00,
2013-02-19 00:52:00,29.0,17.0,30.07,WNW,301,5.0,15.0,60,0.00,,,0.04,,2013-02-19 06:52:00,
2013-02-19 01:01:00,29.0,17.0,30.07,WNW,301,5.0,15.0,60,0.00,,,0.04,,2013-02-19 07:01:00,
2013-02-19 02:22:00,27.0,17.0,30.09,NW,322,4.0,8.0,65,0.00,,,0.04,,2013-02-19 08:22:00,
2013-02-19 02:32:00,27.0,17.0,30.09,NW,322,4.0,8.0,65,0.00,,,0.04,,2013-02-19 08:32:00,
2013-02-19 02:42:00,27.0,17.0,30.09,NW,322,4.0,8.0,65,0.00,,,0.04,,2013-02-19 08:42:00,
2013-02-19 02:52:00,27.0,17.0,30.09,NW,322,4.0,8.0,65,0.00,,,0.04,,2013-02-19 08:52:00,
2013-02-19 03:01:00,27.0,17.0,30.09,NW,322,4.0,8.0,65,0.00,,,0.04,,2013-02-19 09:01:00,
2013-02-19 04:22:00,26.0,17.0,30.11,WNW,298,2.0,9.0,68,0.00,,,0.04,,2013-02-19 10:22:00,
2013-02-19 04:32:00,26.0,17.0,30.11,WNW,298,2.0,9.0,68,0.00,,,0.04,,2013-02-19 10:32:00,
2013-02-19 04:42:00,26.0,17.0,30.11,WNW,298,2.0,9.0,68,0.00,,,0.04,,2013-02-19 10:42:00,
2013-02-19 04:52:00,26.0,17.0,30.11,WNW,298,2.0,9.0,68,0.00,,,0.04,,2013-02-19 10:52:00,
2013-02-19 05:01:00,26.0,17.0,30.11,WNW,298,2.0,9.0,68,0.00,,,0.04,,2013-02-19 11:01:00,
2013-02-19 06:22:00,24.0,17.0,30.16,WNW,295,2.0,4.0,73,0.00,,,0.04,,2013-02-19 12:22:00,
2013-02-19 06:32:00,24.0,17.0,30.16,WNW,295,2.0,4.0,73,0.00,,,0.04,,2013-02-19 12:32:00,
2013-02-19 06:42:00,24.0,17.0,30.16,WNW,295,2.0,4.0,73,0.00,,,0.04,,2013-02-19 12:42:00,
2013-02-19 06:52:00,24.0,17.0,30.16,WNW,295,2.0,4.0,73,0.00,,,0.04,,2013-02-19 12:52:00,
2013-02-19 07:02:00,24.0,17.0,30.16,WNW,295,2.0,4.0,73,0.00,,,0.04,,2013-02-19 13:02:00,
2013-02-19 08:22:00,23.0,14.0,30.22,NW,311,7.0,16.0,69,0.00,,,0.04,,2013-02-19 14:22:00,
2013-02-19 08:33:00,23.0,14.0,30.22,NW,311,7.0,16.0,69,0.00,,,0.04,,2013-02-19 14:33:00,
2013-02-19 08:42:00,23.0,14.0,30.22,NW,311,7.0,16.0,69,0.00,,,0.04,,2013-02-19 14:42:00,
2013-02-19 08:52:00,23.0,14.0,30.22,NW,311,7.0,16.0,69,0.00,,,0.04,,2013-02-19 14:52:00,
2013-02-19 09:01:00,23.0,14.0,30.22,NW,311,7.0,16.0,69,0.00,,,0.04,,2013-02-19 15:01:00,
2013-02-19 10:22:00,25.0,10.0,30.26,NW,308,11.0,22.0,52,0.00,,,0.04,,2013-02-19 16:22:00,
2013-02-19 10:32:00,25.0,10.0,30.26,NW,308,11.0,22.0,52,0.00,,,0.04,,2013-02-19 16:32:00,
2013-02-19 10:42:00,25.0,10.0,30.26,NW,308,11.0,22.0,52,0.00,,,0.04,,2013-02-19 16:42:00,
2013-02-19 10:52:00,25.0,10.0,30.26,NW,308,11.0,22.0,52,0.00,,,0.04,,2013-02-19 16:52:00,
2013-02-19 11:01:00,25.0,10.0,30.26,NW,308,11.0,22.0,52,0.00,,,0.04,,2013-02-19 17:01:00,
2013-02-19 14:22:00,33.0,6.0,30.27,West,267,7.0,17.0,31,0.00,,,0.00,,2013-02-19 20:22:00,
2013-02-19 14:32:00,33.0,6.0,30.27,West,267,7.0,17.0,31,0.00,,,0.00,,2013-02-19 20:32:00,
2013-02-19 14:42:00,33.0,6.0,30.27,West,267,7.0,17.0,31,0.00,,,0.00,,2013-02-19 20:42:00,
2013-02-19 14:52:00,33.0,6.0,30.27,West,267,7.0,17.0,31,0.00,,,0.00,,2013-02-19 20:52:00,
2013-02-19 15:02:00,33.0,6.0,30.27,West,267,7.0,17.0,31,0.00,,,0.00,,2013-02-19 21:02:00,
2013-02-19 16:22:00,35.0,3.0,30.26,North,356,7.0,13.0,25,0.00,,,0.00,,2013-02-19 22:22:00,
2013-02-19 16:32:00,35.0,3.0,30.26,North,356,7.0,13.0,25,0.00,,,0.00,,2013-02-19 22:32:00,
2013-02-19 16:42:00,35.0,3.0,30.26,North,356,7.0,13.0,25,0.00,,,0.00,,2013-02-19 22:42:00,
2013-02-19 16:52:00,35.0,3.0,30.26,North,356,7.0,13.0,25,0.00,,,0.00,,2013-02-19 22:52:00,
2013-02-19 17:01:00,35.0,3.0,30.26,North,356,7.0,13.0,25,0.00,,,0.00,,2013-02-19 23:01:00,
2013-02-19 18:22:00,31.0,2.0,30.25,North,354,2.0,5.0,28,0.00,,,0.00,,2013-02-20 00:22:00,
2013-02-19 18:32:00,31.0,2.0,30.25,North,354,2.0,5.0,28,0.00,,,0.00,,2013-02-20 00:32:00,
2013-02-19 18:42:00,31.0,2.0,30.25,North,354,2.0,5.0,28,0.00,,,0.00,,2013-02-20 00:42:00,
2013-02-19 18:52:00,31.0,2.0,30.25,North,354,2.0,5.0,28,0.00,,,0.00,,2013-02-20 00:52:00,
2013-02-19 19:02:00,31.0,2.0,30.25,North,354,2.0,5.0,28,0.00,,,0.00,,2013-02-20 01:02:00,
2013-02-19 20:22:00,27.0,4.0,30.28,North,352,2.0,5.0,36,0.00,,,0.00,,2013-02-20 02:22:00,
2013-02-19 20:32:00,27.0,4.0,30.28,North,352,2.0,5.0,36,0.00,,,0.00,,2013-02-20 02:32:00,
2013-02-19 20:42:00,27.0,4.0,30.28,North,352,2.0,5.0,36,0.00,,,0.00,,2013-02-20 02:42:00,
2013-02-19 20:52:00,27.0,4.0,30.28,North,352,2.0,5.0,36,0.00,,,0.00,,2013-02-20 02:52:00,
2013-02-19 21:01:00,27.0,4.0,30.28,North,352,2.0,5.0,36,0.00,,,0.00,,2013-02-20 03:01:00,
2013-02-19 22:22:00,24.0,4.0,30.29,NNW,335,3.0,7.0,42,0.00,,,0.00,,2013-02-20 04:22:00,
2013-02-19 22:32:00,24.0,4.0,30.29,NNW,335,3.0,7.0,42,0.00,,,0.00,,2013-02-20 04:32:00,
2013-02-19 22:42:00,24.0,4.0,30.29,NNW,335,3.0,7.0,42,0.00,,,0.00,,2013-02-20 04:42:00,
2013-02-19 22:52:00,24.0,4.0,30.29,NNW,335,3.0,7.0,42,0.00,,,0.00,,2013-02-20 04:52:00,
2013-02-19 23:02:00,24.0,4.0,30.29,NNW,335,3.0,7.0,42,0.00,,,0.00,,2013-02-20 05:02:00,